Tracking 28096 objects as of 29-Sep-2023
HD Live streaming from Space Station
objects crossing your sky now

STARLINK-6229

Track STARLINK-6229 now!
10-day predictions
STARLINK-6229 is classified as:


NORAD ID: 57093
Int'l Code: 2023-088AX
Perigee: 565.5 km
Apogee: 566.9 km
Inclination: 43.0 °
Period: 95.8 minutes
Semi major axis: 6937 km
RCS: Unknown
Launch date: June 22, 2023
Source: United States (US)
Launch site: AIR FORCE WESTERN TEST RANGE (AFWTR)
Your satellite tracking list
Your tracking list is empty




NASA's NSSDC Master Catalog

Two Line Element Set (TLE):
1 57093U 23088AX  23271.43521618 -.00000196  00000-0  53813-6 0  9993
2 57093  43.0021 267.9336 0001041 265.2327  94.8396 15.02533229 15248
Source of the keplerian elements: AFSPC